Location: Boda
(47.1872°N, 9.5454°E)
Time: 09:45:36
(UTC+00:00)

ADEOS Rocket - Pass Details

Date: 14 May 2021
Orbit: 858 x 1307 km, 98.7° (Epoch: 16 June)

Event Time Altitude Azimuth Distance (km) Brightness Sun altitude
Exits shadow 02:51:37 - 195° (SSW) 3,899 5.6 -8.6°
Reaches altitude 10° 02:53:49 10° 202° (SSW) 3,198 5.2 -8.3°
Maximum altitude 03:00:36 37° 267° (W) 1,902 4.1 -7.4°
Drops below altitude 10° 03:07:42 10° 332° (NNW) 3,336 5.9 -6.4°
Sets 03:10:44 0° 341° (NNW) 4,306 6.6 -6.0°
